This is the latest recevied weather packets stored in our database for station/object AB4BJ-10. If no packets are shown the sender has not sent any weather packets the latest 10 day(s).
| Time | Temp. | Humidity | Pressure | Rain* | Wind** | Luminosity | Snow |
|---|---|---|---|---|---|---|---|
| 1788476799 | 29.44° C | 77% | 1010.6 hPa | 0 mm | - | - | - |
| 1788476295 | 30° C | 77% | 1010.6 hPa | 0 mm | - | - | - |
| 1788476196 | 30° C | 77% | 1010.6 hPa | 0 mm | - | - | - |
| 1788475612 | 30.56° C | 79% | 1010.8 hPa | 0 mm | - | - | - |
| 1788474996 | 30.56° C | 77% | 1010.8 hPa | 0 mm | - | - | - |
| 1788474695 | 30.56° C | 78% | 1010.9 hPa | 0 mm | - | - | - |
| 1788474096 | 30.56° C | 77% | 1010.8 hPa | 0 mm | - | - | - |
| 1788472893 | 30.56° C | 80% | 1010.7 hPa | 0 mm | - | - | - |
| 1788472504 | 31.67° C | 78% | 1010.8 hPa | 0 mm | - | - | - |
| 1788472292 | 31.67° C | 78% | 1010.8 hPa | 0 mm | - | - | - |
| 1788471992 | 31.67° C | 67% | 1010.6 hPa | 0 mm | - | - | - |
| 1788471139 | 31.67° C | 68% | 1010.9 hPa | 0 mm | - | - | - |
| 1788471092 | 31.67° C | 68% | 1010.9 hPa | 0 mm | - | - | - |
| 1788470491 | 32.78° C | 62% | 1011 hPa | 0 mm | - | - | - |
| 1788470356 | 33.33° C | 60% | 1011 hPa | 0 mm | - | - | - |
| 1788470214 | 33.33° C | 60% | 1011 hPa | 0 mm | - | - | - |
| 1788469589 | 33.89° C | 58% | 1011 hPa | 0 mm | - | - | - |
| 1788469382 | 34.44° C | 57% | 1011.1 hPa | 0 mm | - | - | - |
| 1788469292 | 34.44° C | 57% | 1011.1 hPa | 0 mm | - | - | - |
| 1788468989 | 34.44° C | 57% | 1011 hPa | 0 mm | - | - | - |
| 1788468389 | 34.44° C | 55% | 1011 hPa | 0 mm | - | - | - |
| 1788467787 | 34.44° C | 57% | 1011.1 hPa | 0 mm | - | - | - |
| 1788467187 | 34.44° C | 56% | 1011.2 hPa | 0 mm | - | - | - |
| 1788466889 | 34.44° C | 57% | 1011.2 hPa | 0 mm | - | - | - |
| 1788466689 | 35° C | 56% | 1011.3 hPa | 0 mm | - | - | - |
* Rain latest hour (hover to see other rain measurements)
** Current wind speed in m/s (hover to see current wind gust speed)